Alva, OK

4:47 AM CDT on May 25, 2018 (GMT -0500)
Alva Regional

Weather History for KAVK - February, 2014

Change the Weather History Date:

Monday, February 10, 2014

  Actual Average Record
Temperature  
Mean Temperature 16 °F -  
Max Temperature 17 °F 55 °F 82 °F (2017)
Min Temperature 14 °F 25 °F 2 °F (1979)
Degree Days  
Heating Degree Days 50    
Moisture  
Dew Point 10 °F    
Average Humidity 81    
Maximum Humidity 93    
Minimum Humidity 73    
Precipitation  
Precipitation 3.68 in - - ()
Sea Level Pressure  
Sea Level Pressure 30.37 in    
Wind  
Wind Speed 13 mph (NNE)    
Max Wind Speed 18 mph    
Max Gust Speed 21 mph    
Visibility 7 miles    
Events Rain , Snow    
Averages and records for this station are not official NWS values.
T = Trace of Precipitation, MM = Missing Value Source: NWS Daily Summary

Daily Weather History Graph

Daily Weather History Graph

Search for Another Location

Airport or City:

Astronomy

Feb. 10, 2014 Rise Set
Actual Time 7:28 AM CST 6:09 PM CST
Civil Twilight 7:01 AM CST 6:36 PM CST
Nautical Twilight 6:31 AM CST 7:07 PM CST
Astronomical Twilight 6:00 AM CST 7:37 PM CST
Moon 2:42 PM CST (2/10) 4:20 AM CST (2/10)
Length of Visible Light 11h 35m
Length of Day
10h 41m
Waxing Gibbous, 85% of the Moon is Illuminated
Feb 10
Waxing Gibbous
Feb 14
Full
Feb 22
Last Quarter
Mar 1
New
Mar 8
First Quarter

Hourly Weather History & Observations

Time (CST) Temp. Windchill Dew Point Humidity Pressure Visibility Wind Dir Wind Speed Gust Speed Precip Events Conditions
12:05 AM 17.6 °F 3.2 °F 14.0 °F 86% 30.35 in 8.0 mi NNE 15.0 mph - N/A   Overcast
12:25 AM 17.6 °F 3.7 °F 14.0 °F 86% 30.34 in 8.0 mi NNE 13.8 mph 18.4 mph N/A   Overcast
12:45 AM 17.6 °F 2.2 °F 14.0 °F 86% 30.35 in 7.0 mi NNE 17.3 mph - N/A   Overcast
1:05 AM 15.8 °F -0.2 °F 12.2 °F 86% 30.34 in 8.0 mi NNE 17.3 mph - N/A   Overcast
1:25 AM 15.8 °F 1.4 °F 12.2 °F 86% 30.34 in 10.0 mi NNE 13.8 mph - N/A   Overcast
1:45 AM 15.8 °F 1.4 °F 10.4 °F 79% 30.34 in 9.0 mi NNE 13.8 mph - N/A   Overcast
2:05 AM 15.8 °F 0.3 °F 10.4 °F 79% 30.34 in 9.0 mi NNE 16.1 mph 20.7 mph N/A   Overcast
2:25 AM 15.8 °F 0.9 °F 10.4 °F 79% 30.35 in 10.0 mi NNE 15.0 mph 19.6 mph N/A   Mostly Cloudy
2:45 AM 14.0 °F -1.4 °F 10.4 °F 86% 30.36 in 10.0 mi NNE 15.0 mph - N/A   Mostly Cloudy
3:05 AM 15.8 °F 2.7 °F 10.4 °F 79% 30.35 in 10.0 mi NNE 11.5 mph - N/A   Overcast
3:25 AM 14.0 °F 0.5 °F 10.4 °F 86% 30.37 in 10.0 mi North 11.5 mph - N/A   Overcast
3:45 AM 14.0 °F 1.2 °F 10.4 °F 86% 30.38 in 9.0 mi North 10.4 mph - N/A Snow Light Snow
4:05 AM 14.0 °F 1.2 °F 10.4 °F 86% 30.37 in 10.0 mi NNE 10.4 mph - N/A Snow Light Snow
4:25 AM 14.0 °F -1.4 °F 10.4 °F 86% 30.37 in 10.0 mi NNE 15.0 mph - N/A Rain Light Freezing Rain
4:45 AM 14.0 °F -0.8 °F 10.4 °F 86% 30.37 in 6.0 mi NNE 13.8 mph - N/A Snow Light Snow
5:10 AM 14.0 °F -3.0 °F 8.6 °F 79% 30.36 in 8.0 mi NNE 18.4 mph - N/A Rain Light Freezing Rain
5:25 AM 14.0 °F -1.4 °F 8.6 °F 79% 30.37 in 10.0 mi NNE 15.0 mph - N/A Rain Light Freezing Rain
5:45 AM 14.0 °F -2.0 °F 8.6 °F 79% 30.37 in 10.0 mi NNE 16.1 mph - N/A Rain Light Freezing Rain
6:05 AM 14.0 °F -2.5 °F 8.6 °F 79% 30.37 in 10.0 mi NNE 17.3 mph - N/A   Overcast
6:25 AM 14.0 °F -0.8 °F 8.6 °F 79% 30.38 in 10.0 mi NNE 13.8 mph 20.7 mph N/A   Overcast
6:45 AM 14.0 °F -0.8 °F 8.6 °F 79% 30.37 in 10.0 mi NNE 13.8 mph - N/A   Overcast
7:05 AM 14.0 °F -1.4 °F 8.6 °F 79% 30.37 in 10.0 mi NNE 15.0 mph - N/A   Overcast
7:25 AM 14.0 °F -0.8 °F 8.6 °F 79% 30.39 in 10.0 mi NNE 13.8 mph - N/A Rain Light Freezing Rain
7:45 AM 14.0 °F -0.2 °F 8.6 °F 79% 30.40 in 10.0 mi North 12.7 mph - N/A   Overcast
8:05 AM 14.0 °F -2.0 °F 8.6 °F 79% 30.40 in 10.0 mi NNE 16.1 mph - N/A   Overcast
8:25 AM 14.0 °F -0.8 °F 6.8 °F 73% 30.42 in 9.0 mi North 13.8 mph - N/A   Overcast
8:45 AM 14.0 °F -0.8 °F 8.6 °F 79% 30.42 in 10.0 mi NNE 13.8 mph - N/A   Overcast
9:05 AM 14.0 °F -1.4 °F 8.6 °F 79% 30.42 in 9.0 mi NNE 15.0 mph 18.4 mph N/A   Overcast
9:25 AM 14.0 °F -0.8 °F 8.6 °F 79% 30.42 in 10.0 mi NNE 13.8 mph - N/A   Mostly Cloudy
9:45 AM 14.0 °F 0.5 °F 8.6 °F 79% 30.41 in 10.0 mi NNE 11.5 mph - N/A   Mostly Cloudy
10:05 AM 15.8 °F 3.4 °F 8.6 °F 73% 30.41 in 10.0 mi NE 10.4 mph - N/A   Mostly Cloudy
10:25 AM 14.0 °F 1.2 °F 8.6 °F 79% 30.40 in 10.0 mi NE 10.4 mph - N/A   Scattered Clouds
10:45 AM 14.0 °F -0.2 °F 8.6 °F 79% 30.40 in 10.0 mi ENE 12.7 mph - N/A   Partly Cloudy
11:05 AM 14.0 °F 1.2 °F 8.6 °F 79% 30.39 in 9.0 mi NE 10.4 mph - N/A   Scattered Clouds
11:25 AM 15.8 °F 2.7 °F 8.6 °F 73% 30.39 in 10.0 mi NE 11.5 mph - N/A   Scattered Clouds
11:45 AM 15.8 °F 2.1 °F 8.6 °F 73% 30.38 in 9.0 mi NE 12.7 mph - N/A   Mostly Cloudy
12:05 PM 15.8 °F 2.7 °F 10.4 °F 79% 30.38 in 8.0 mi NE 11.5 mph - N/A Snow Light Snow
12:25 PM 15.8 °F 3.4 °F 8.6 °F 73% 30.36 in 9.0 mi NE 10.4 mph - N/A   Mostly Cloudy
12:45 PM 15.8 °F 4.2 °F 10.4 °F 79% 30.36 in 9.0 mi ENE 9.2 mph - N/A   Overcast
1:05 PM 15.8 °F 8.6 °F 8.6 °F 73% 30.36 in 9.0 mi ENE 4.6 mph - N/A   Overcast
1:25 PM 15.8 °F 7.2 °F 10.4 °F 79% 30.36 in 10.0 mi NNE 5.8 mph - N/A   Overcast
1:45 PM 17.6 °F 9.3 °F 10.4 °F 73% 30.36 in 10.0 mi NNE 5.8 mph - N/A   Overcast
2:05 PM 17.6 °F 10.7 °F 10.4 °F 73% 30.34 in 10.0 mi NE 4.6 mph - N/A   Overcast
2:25 PM 17.6 °F 5.7 °F 10.4 °F 73% 30.34 in 9.0 mi NNE 10.4 mph - N/A   Overcast
2:45 PM 17.6 °F 5.7 °F 10.4 °F 73% 30.35 in 9.0 mi NNE 10.4 mph - N/A   Overcast
3:05 PM 17.6 °F 6.4 °F 10.4 °F 73% 30.34 in 10.0 mi NE 9.2 mph - N/A   Overcast
3:30 PM 17.6 °F 4.3 °F 10.4 °F 73% 30.33 in 9.0 mi NNE 12.7 mph - N/A   Overcast
3:45 PM 17.6 °F 3.7 °F 10.4 °F 73% 30.33 in 9.0 mi NNE 13.8 mph - N/A   Overcast
4:05 PM 17.6 °F 3.7 °F 10.4 °F 73% 30.33 in 10.0 mi NNE 13.8 mph - N/A   Overcast
4:25 PM 17.6 °F 3.7 °F 10.4 °F 73% 30.33 in 10.0 mi NNE 13.8 mph - N/A   Overcast
4:45 PM 17.6 °F 3.2 °F 10.4 °F 73% 30.33 in 10.0 mi NNE 15.0 mph - N/A   Overcast
5:05 PM 17.6 °F 4.3 °F 10.4 °F 73% 30.32 in 10.0 mi NE 12.7 mph - N/A   Scattered Clouds
5:25 PM 17.6 °F 2.7 °F 10.4 °F 73% 30.32 in 9.0 mi NE 16.1 mph 19.6 mph N/A   Mostly Cloudy
5:45 PM 17.6 °F 3.7 °F 10.4 °F 73% 30.34 in 7.0 mi NE 13.8 mph - N/A Snow Light Snow
6:05 PM 17.6 °F 4.3 °F 10.4 °F 73% 30.34 in 2.5 mi NE 12.7 mph - N/A Snow Light Snow
6:30 PM 15.8 °F 2.1 °F 12.2 °F 86% 30.35 in 3.0 mi NE 12.7 mph - 0.01 in Snow Light Snow
6:45 PM 15.8 °F 1.4 °F 12.2 °F 86% 30.35 in 2.5 mi NE 13.8 mph - 0.02 in Snow Light Snow
7:05 PM 15.8 °F 2.7 °F 12.2 °F 86% 30.36 in 1.2 mi NE 11.5 mph - 0.01 in Snow Light Snow
7:25 PM 15.8 °F 2.1 °F 12.2 °F 86% 30.37 in 1.2 mi NE 12.7 mph - 0.10 in Snow Light Snow
7:45 PM 14.0 °F 1.2 °F 12.2 °F 93% 30.37 in 0.5 mi NNE 10.4 mph - 0.27 in Snow Snow
8:05 PM 14.0 °F 2.0 °F 12.2 °F 93% 30.38 in 1.0 mi NNE 9.2 mph - 0.02 in Snow Light Snow
8:25 PM 14.0 °F 1.2 °F 10.4 °F 86% 30.39 in 0.5 mi NNE 10.4 mph - 0.25 in Snow Snow
8:45 PM 14.0 °F 2.0 °F 10.4 °F 86% 30.38 in 0.8 mi NE 9.2 mph - 0.51 in Snow Light Snow
9:05 PM 14.0 °F 2.0 °F 10.4 °F 86% 30.39 in 1.2 mi NE 9.2 mph - 0.02 in Snow Light Snow
9:25 PM 14.0 °F 5.1 °F 12.2 °F 93% 30.40 in 1.0 mi NNE 5.8 mph - 0.17 in Snow Light Snow
9:45 PM 14.0 °F 3.9 °F 12.2 °F 93% 30.41 in 0.8 mi North 6.9 mph - 0.48 in Snow Light Snow
10:05 PM 14.0 °F 3.9 °F 12.2 °F 93% 30.41 in 0.8 mi NNE 6.9 mph - 0.09 in Snow Light Snow
10:25 PM 14.0 °F 5.1 °F 12.2 °F 93% 30.40 in 1.0 mi NE 5.8 mph - 0.74 in Snow Light Snow
10:45 PM 14.0 °F 2.9 °F 10.4 °F 86% 30.41 in 1.2 mi NNE 8.1 mph - 0.97 in Snow Light Snow
11:10 PM 14.0 °F 3.9 °F 10.4 °F 86% 30.40 in 0.8 mi NNE 6.9 mph - 0.29 in Snow Light Snow
11:25 PM 14.0 °F 2.9 °F 10.4 °F 86% 30.40 in 0.8 mi NNE 8.1 mph - 0.76 in Snow Light Snow
11:45 PM 14.0 °F 5.1 °F 10.4 °F 86% 30.40 in 1.0 mi NNE 5.8 mph - 1.43 in Snow Light Snow